Location: Stanford
(52.2833°N, 2.4333°W)
Time: 18:27:37
(UTC+00:00)

Cosmos 2082 Rocket - Pass Details

Date: 22 January 2021
Orbit: 832 x 855 km, 71.0° (Epoch: 26 February)

Event Time Altitude Azimuth Distance (km) Brightness Sun altitude
Rises 17:17:09 0° 324° (NW) 3,437 5.5 -6.0°
Reaches altitude 10° 17:20:39 10° 346° (NNW) 2,499 4.6 -6.5°
Maximum altitude 17:24:09 16° 24° (NNE) 2,088 3.8 -7.0°
Drops below altitude 10° 17:27:38 10° 61° (ENE) 2,493 4.0 -7.5°
Enters shadow 17:28:01 - 64° (ENE) 2,576 4.0 -7.5°
